Tracking 23439 objects as of 16-Jun-2021
HD Live streaming from Space Station
objects crossing your sky now

IUS DEB

Track IUS DEB now!
10-day predictions


NORAD ID: 43365
Int'l Code: 1999-040N
Perigee: 772.2 km
Apogee: 8,902.5 km
Inclination: 28.2 °
Period: 196.8 minutes
Semi major axis: 11208 km
RCS: Unknown
Launch date: July 23, 1999
Source: United States (US)
Launch site: AIR FORCE EASTERN TEST RANGE (AFETR)

Note: This is SATELLITE DEBRIS
aabbcc
Your satellite tracking list
Your tracking list is empty




NASA's NSSDC Master Catalog

Two Line Element Set (TLE):
1 43365U 99040N   21149.19794543 -.00002298  00000-0 -12115-1 0  9996
2 43365  28.1931 101.1580 3626902 224.1813 100.4424  7.31625624219049
Source of the keplerian elements: AFSPC